TimeCST,TemperatureF,Dew PointF,Humidity,Sea Level PressureIn,VisibilityMPH,Wind Direction,Wind SpeedMPH,Gust SpeedMPH,PrecipitationIn,Events,Conditions,WindDirDegrees,DateUTC
12:55 AM,32.7,29.7,88,30.09,10.0,SW,4.6,-,N/A,,Scattered Clouds,220,2013-02-03 06:55:00
1:55 AM,33.4,31.3,92,30.09,10.0,SW,5.8,-,N/A,,Overcast,230,2013-02-03 07:55:00
2:08 AM,33.8,32.0,93,30.09,10.0,WSW,4.6,-,N/A,,Overcast,240,2013-02-03 08:08:00
2:55 AM,35.4,30.6,82,30.05,10.0,South,6.9,-,0.00,Snow,Light Snow,180,2013-02-03 08:55:00
3:10 AM,35.6,30.2,81,30.05,10.0,SSW,6.9,-,N/A,,Overcast,200,2013-02-03 09:10:00
3:55 AM,35.1,31.3,86,30.02,10.0,South,4.6,-,0.00,,Overcast,170,2013-02-03 09:55:00
4:55 AM,33.4,32.0,94,30.02,10.0,NNE,3.5,-,N/A,,Mostly Cloudy,20,2013-02-03 10:55:00
5:55 AM,31.6,31.1,98,30.02,10.0,West,4.6,-,N/A,,Clear,270,2013-02-03 11:55:00
6:55 AM,33.4,32.2,95,30.05,10.0,West,10.4,-,N/A,,Clear,260,2013-02-03 12:55:00
7:55 AM,36.7,33.1,87,30.07,10.0,West,11.5,-,N/A,,Clear,260,2013-02-03 13:55:00
8:55 AM,39.6,32.5,76,30.08,10.0,WNW,15.0,23.0,N/A,,Clear,290,2013-02-03 14:55:00
9:55 AM,41.2,29.1,62,30.10,10.0,WNW,16.1,23.0,N/A,,Partly Cloudy,300,2013-02-03 15:55:00
10:55 AM,40.1,28.8,64,30.13,10.0,NW,15.0,20.7,N/A,,Overcast,310,2013-02-03 16:55:00
11:26 AM,37.4,30.2,75,30.14,10.0,NNW,13.8,23.0,N/A,,Overcast,330,2013-02-03 17:26:00
11:32 AM,37.4,30.2,75,30.14,10.0,NNW,13.8,23.0,N/A,,Overcast,330,2013-02-03 17:32:00
11:38 AM,39.2,30.2,70,30.14,10.0,NNW,13.8,23.0,N/A,,Overcast,330,2013-02-03 17:38:00
11:41 AM,37.4,30.2,75,30.14,10.0,NW,12.7,23.0,N/A,,Overcast,320,2013-02-03 17:41:00
11:46 AM,37.4,30.2,75,30.14,10.0,NNW,11.5,-,N/A,,Overcast,330,2013-02-03 17:46:00
11:48 AM,37.4,30.2,75,30.14,10.0,NNW,10.4,-,N/A,,Overcast,330,2013-02-03 17:48:00
11:55 AM,39.0,30.7,72,30.14,10.0,NNW,11.5,-,N/A,,Overcast,330,2013-02-03 17:55:00
12:55 PM,38.7,29.5,70,30.15,10.0,NNW,12.7,19.6,N/A,,Overcast,330,2013-02-03 18:55:00
1:55 PM,39.2,27.3,62,30.15,10.0,NNW,11.5,-,N/A,,Overcast,330,2013-02-03 19:55:00
2:55 PM,40.1,27.9,62,30.15,10.0,NW,12.7,19.6,N/A,,Mostly Cloudy,310,2013-02-03 20:55:00
3:55 PM,41.0,24.6,52,30.15,10.0,WNW,11.5,-,N/A,,Clear,290,2013-02-03 21:55:00
4:55 PM,39.7,23.5,52,30.17,10.0,NW,8.1,-,N/A,,Clear,320,2013-02-03 22:55:00
5:55 PM,35.6,23.7,62,30.17,10.0,North,3.5,-,N/A,,Clear,350,2013-02-03 23:55:00
6:55 PM,32.7,23.7,69,30.19,10.0,North,5.8,-,N/A,,Clear,360,2013-02-04 00:55:00
7:55 PM,29.5,24.4,81,30.19,10.0,ENE,4.6,-,N/A,,Clear,60,2013-02-04 01:55:00
8:55 PM,29.1,24.6,83,30.20,10.0,Calm,Calm,-,N/A,,Clear,0,2013-02-04 02:55:00
9:55 PM,28.4,23.9,83,30.18,10.0,Calm,Calm,-,N/A,,Clear,0,2013-02-04 03:55:00
10:55 PM,27.3,23.4,85,30.17,10.0,ESE,4.6,-,N/A,,Clear,120,2013-02-04 04:55:00
11:55 PM,26.8,23.4,87,30.15,10.0,ESE,5.8,-,N/A,,Clear,110,2013-02-04 05:55:00